Other Surface Observations
Issued by NWS Charleston, SC

Home | Current Version | Previous Version | Text Only | Print | Product List | Glossary On
Versions: 1 2 3 4 5 6 7 8 9 10 11 12 13 14 15 16 17 18 19 20 21 22 23 24 25 26 27 28 29 30 31 32 33 34 35 36 37 38 39 40 41 42 43 44 45 46 47 48 49 50
000
SXUS52 KCHS 300125
OSOCHS

MARINE OBSERVATIONS
NATIONAL WEATHER SERVICE CHARLESTON SC
900 PM EDT TUE JUL 29 2014

...DOWNTOWN CHARLESTON AND HARBOR...

CITY           SKY/WX    TMP DP  RH WIND       PRES   REMARKS
WATERFRONT PRK   N/A     79 N/A N/A NE14G25     N/A
FORT JOHNSON   NOT AVBL

...LAKE MOULTRIE...

CITY           SKY/WX    TMP DP  RH WIND       PRES   REMARKS
PINOPOLIS        N/A     86  63  45 N6        29.83F

...LAKE AND SUPPLEMENTAL COASTAL OBSERVATIONS...

STATION/POSITION TIME  TEMP    WIND        PRES    WAVE   SWELL
                       AIR SEA DIR/SP/G            HT/PER HT/PER/DIR
                 (UTC) (F)     (DEG/KT/KT) (MB)    (FT/S) (FT/S/D)
FORT PULASKI     0100   81      CALM  /  1 1013.8R
SAPELO ISLAND    0100   81     100/  2     1014.0S
UPR LAKE MARION  NOT AVBL
WINYAH BAY       0100   81     140/  2     1013.0S
LAKE MURRAY      0000   81      CALM  /  2 1012.9R
ACE BASIN NERRS  0100   80        CALM     1013.0S


...C-MAN AND BUOY OBSERVATIONS...

STATION/POSITION TIME  TEMP    WIND        PRES    WAVE   SWELL
                       AIR SEA DIR/SP/G            HT/PER HT/PER/DIR
                 (UTC) (F)     (DEG/KT/KT) (MB)    (FT/S) (FT/S/D)
BUOY 41004       0100   82 84   40/  6/  8 1012.5R   2/ 5   2/ 5
BUOY 41008       0100   83 86   90/ 10/ 12 1013.1R   2/ 5   2/ 60/ 5
FOLLY BEACH CMAN 0100   81     130/  3/  4 1014.0R
CAPERS NS BUOY   0000   81     110/  4/  6   N/A
FRIPP NS BUOY    NOT AVBL
5E ST. MARYS GA  0100      85                N/A     2/ 8
FRYING PAN BUOY  NOT AVBL
BUOY 41025       0100          VRB 16/ 19  1013.7R   4/ 7   2/140/ 8
CAPE LOOKOUT NC  0100   77      60/ 15/ 16 1013.8R
BUOY 41002       0026   81 81  220/ 17/ 21 1013.9R   6/ 7   2/150/ 8
BUOY 41010       0100   83 84  220/ 14/ 16 1013.9R   4/ 5   2/130/ 9
BUOY 41012       NOT AVBL
ST AUGUSTINE FL  0100   84     210/  5/  7 1013.3R


$$



USA.gov is the U.S. government's official web portal to all federal, state and local government web resources and services.